Flag for U.S.A. Weather past 2 weeks in Billings, Montana, U.S.A.

Now
69 °F

Mostly cloudy.


Feels Like: 69 °F
Forecast: 65 / 84 °F
Wind: No wind

Location: Billings Logan International Airport

Current Time: Aug 20, 2014 at 7:38:30 AM

Latest Report: Aug 20, 2014 at 6:53 AM


Visibility: 10 mi

Pressure: 29.69 "Hg

Humidity: 41%

Dew point: 44 °F

Location of BillingsLocation

Historic Weather in Billings — Graph

°F

Billings temperature yesterday

Maximum temperature yesterday: 92 °F (at 3:53 PM)
Minimum temperature yesterday: 60 °F (at 5:53 AM)
Average temperature yesterday: 75 °F

Past Weeks' High & Low Weather Summary

 TemperatureHumidityPressure
High97 °F (Aug 12, 4:53 PM)93% (Aug 15, 4:53 AM)30.19 "Hg (Aug 15, 4:53 AM)
Low58 °F (Aug 6, 5:53 AM)13% (Aug 8, 2:53 PM)29.59 "Hg (Aug 19, 3:53 PM)
Average74 °F46%29.93 "Hg
* Reported Aug 5 5:53 AM — Aug 20 5:53 AM, Billings, Weather by CustomWeather, © 2014

Note: Actual official high and low records may vary slightly from our data, if they occured in-between our weather recording intervals... More about our weather records

Advertising

Billings weather history for previous 24 hours

 ConditionsComfort  
Time TempWeatherWind HumidityBarometerVisibility
5:53 AM
Aug 20
68 °FMostly cloudy.10 mph44%29.67 "Hg10 mi
4:53 AM72 °FPassing clouds.14 mph35%29.63 "Hg10 mi
3:53 AM68 °FPassing clouds.9 mph42%29.62 "Hg10 mi
2:53 AM70 °FPartly cloudy.12 mph39%29.62 "Hg10 mi
1:53 AM71 °FPassing clouds.13 mph36%29.62 "Hg10 mi
12:53 AM72 °FPassing clouds.12 mph35%29.62 "Hg10 mi
11:53 PM
Aug 19
70 °FPassing clouds.7 mph39%29.63 "Hg10 mi
10:53 PM73 °FPartly cloudy.10 mph36%29.62 "Hg10 mi
9:53 PM76 °FPassing clouds.8 mph30%29.65 "Hg10 mi
8:53 PM77 °FBroken clouds.10 mph31%29.65 "Hg10 mi
7:53 PM79 °FPartly sunny.12 mph30%29.64 "Hg10 mi
6:53 PM83 °FBroken clouds.16 mph24%29.64 "Hg10 mi
5:53 PM85 °FCloudy.9 mph22%29.63 "Hg10 mi
4:53 PM90 °FBroken clouds.10 mph16%29.59 "Hg10 mi
3:53 PM92 °FBroken clouds.8 mph14%29.59 "Hg10 mi
2:53 PM91 °FBroken clouds.12 mph17%29.61 "Hg10 mi
1:53 PM90 °FScattered clouds.9 mph19%29.63 "Hg10 mi
12:53 PM87 °FScattered clouds.8 mph21%29.67 "Hg10 mi
11:53 AM84 °FPassing clouds.8 mph23%29.69 "Hg10 mi
10:53 AM79 °FPassing clouds.12 mph34%29.70 "Hg10 mi
9:53 AM71 °FPassing clouds.8 mph44%29.72 "Hg10 mi
8:53 AM65 °FPassing clouds.14 mph51%29.73 "Hg10 mi
7:53 AM63 °FPassing clouds.10 mph50%29.72 "Hg10 mi
Weather by CustomWeather, © 2014

See weather overviewHow to use our weather pages